Theta_e
317 316 316 316 316 316 315 315 315 315 315 315 315 316 316 316 315 316 317 317 317 316 316 317 318 319 317 312 312 324 350 347 328 318 315 317 319 321 320 324 326 324 327 329 330 330 331
316 316 316 316 315 315 315 314 314 315 315 315 316 316 316 316 316 317 317 316 316 316 318 321 320 319 313 308 326 327 325 330 321 316 315 318 317 324 323 323 322 326 327 327 330 328 329
316 315 315 315 315 314 315 314 314 315 315 316 316 316 316 316 316 316 316 316 315 315 320 324 323 319 312 312 327 322 324 325 326 320 314 319 319 321 323 321 326 325 320 324 326 327 326
315 315 315 315 315 315 315 314 315 315 316 316 316 316 315 315 315 315 314 314 314 316 324 322 324 318 309 327 326 325 318 320 324 323 319 322 322 321 320 325 324 320 320 315 324 326 327
315 315 315 314 315 315 315 315 315 315 315 315 315 315 315 314 314 313 313 313 315 318 323 320 319 315 312 328 321 325 322 318 322 324 324 325 323 318 320 316 315 317 311 314 317 326 324
314 314 314 314 315 315 315 315 315 315 315 315 315 314 314 314 313 312 311 313 320 320 321 323 323 314 317 316 322 323 325 318 320 323 322 321 318 313 315 313 306 310 311 314 314 321 321
314 314 314 314 315 315 315 315 315 315 315 315 315 314 313 313 312 311 311 313 306 313 308 308 314 312 315 323 323 319 322 317 318 322 314 318 311 308 311 314 315 315 314 311 315 321 318
313 313 314 315 316 315 315 315 315 315 315 315 314 313 312 312 311 311 310 306 304 306 299 306 306 307 312 318 312 316 320 312 311 311 317 314 309 314 315 315 314 314 312 311 314 319 319
313 314 315 315 315 315 315 315 315 315 314 314 313 313 311 311 310 311 310 307 311 310 299 300 305 305 306 310 309 315 315 314 310 309 313 311 313 317 314 313 310 312 311 311 311 315 320
314 315 315 315 315 315 315 315 315 314 313 313 313 312 311 309 308 311 307 310 311 310 293 298 303 307 307 308 306 319 317 316 313 309 312 313 316 313 312 310 311 306 315 314 313 311 306
314 315 315 314 314 314 315 314 314 313 313 312 312 311 310 308 308 308 307 310 310 308 285 306 307 315 311 305 309 310 321 314 310 311 313 312 313 311 310 310 312 308 314 313 313 310 310
314 315 314 314 314 314 314 314 313 313 312 312 311 310 309 311 311 311 310 310 307 293 285 301 308 306 306 306 306 311 313 316 316 313 314 313 318 313 311 313 312 313 310 310 311 309 303
313 314 314 313 314 314 314 314 313 312 312 311 310 308 307 312 306 311 310 305 291 286 298 296 297 301 301 303 305 306 308 307 305 303 306 311 313 313 313 309 311 310 306 299 298 299 300
313 314 314 314 314 313 313 313 313 312 311 310 308 306 313 313 312 310 307 297 286 292 293 298 297 297 297 302 304 306 304 306 307 308 305 302 302 311 312 310 308 307 306 300 294 296 299
313 314 314 314 314 313 313 313 312 311 310 309 306 312 312 312 311 309 301 290 290 292 295 293 294 293 295 299 300 303 304 305 308 308 304 304 304 313 314 313 312 307 303 309 303 304 300
313 314 314 314 314 313 313 313 312 311 310 308 307 309 310 313 311 307 298 291 293 297 296 294 288 292 288 292 293 296 300 308 308 309 311 308 303 310 312 314 312 310 311 302 304 297 297
313 313 314 314 314 314 314 313 313 311 310 308 308 304 309 312 310 302 293 293 294 297 297 293 291 290 290 290 292 293 299 304 307 310 312 308 306 307 311 308 306 307 307 306 306 304 299
314 314 314 314 314 314 314 314 312 310 308 307 305 299 312 310 297 298 294 295 295 295 298 296 296 292 291 293 292 293 295 301 308 306 305 311 306 302 306 313 313 310 308 309 303 302 305
314 314 314 314 314 314 314 313 312 310 310 305 300 303 310 308 292 293 296 295 296 294 294 293 292 293 294 291 289 294 295 303 304 304 303 306 305 300 303 310 311 308 309 309 310 307 305
314 314 314 314 314 314 314 313 312 311 310 307 302 295 302 302 301 296 294 293 291 297 294 294 294 295 292 290 293 291 293 299 303 304 313 308 305 304 301 306 311 307 308 309 308 305 305
313 313 314 314 314 314 314 313 312 311 310 307 301 296 298 292 295 295 295 293 291 290 296 295 293 293 291 287 289 290 293 295 298 306 306 307 302 306 308 310 311 308 307 308 307 309 305
313 313 313 314 314 314 314 313 312 311 310 304 297 294 297 295 296 294 294 292 291 292 292 291 291 293 293 289 291 289 292 292 293 299 300 305 302 306 305 308 309 308 308 308 309 309 310
312 313 313 313 313 313 313 313 313 312 310 303 305 302 295 292 293 291 292 293 293 295 295 295 294 292 291 292 296 297 297 297 297 296 297 300 301 301 299 307 307 304 308 309 310 311 311
312 312 313 313 313 313 313 313 313 312 311 310 306 299 291 287 291 292 293 294 293 295 293 295 295 293 296 301 299 299 298 297 297 298 300 296 298 300 298 304 296 308 315 313 311 312 314
312 312 312 313 313 313 313 313 313 312 312 312 308 298 293 287 291 292 292 293 296 297 295 295 297 298 302 297 292 290 292 293 295 297 298 300 298 296 296 298 304 308 311 311 309 310 315
312 312 312 312 313 313 312 312 312 313 312 313 307 305 296 289 289 295 293 294 292 294 295 295 301 303 299 294 292 286 286 292 290 294 300 300 301 296 298 295 295 306 313 316 315 305 316
312 312 312 312 312 311 311 312 313 313 312 311 308 308 299 290 293 294 291 291 296 295 293 295 297 296 300 291 289 287 287 294 290 290 292 293 294 293 295 294 301 308 311 314 303 308 320
311 311 311 312 311 311 312 312 313 313 313 311 308 309 300 293 295 298 299 295 295 295 291 296 294 295 296 290 291 291 290 292 293 294 294 293 291 292 295 294 293 309 309 305 314 317 316
311 311 311 310 311 311 311 312 313 313 313 313 306 310 307 297 297 301 302 303 301 300 297 296 295 295 295 292 294 293 290 292 292 288 299 292 297 295 297 297 311 308 308 311 311 311 313
Wind_Speed
18 19 19 19 19 20 21 21 21 21 22 23 23 24 24 25 26 26 26 25 24 24 21 18 14 11 8 12 16 12 12 15 21 22 24 23 24 24 25 22 21 21 21 25 20 9 23
18 19 19 19 20 21 21 22 23 23 23 24 24 25 25 26 26 27 27 25 24 23 20 14 9 6 8 18 14 21 11 15 18 24 25 24 21 23 22 23 23 21 18 15 15 19 16
18 19 20 20 21 21 22 23 23 24 24 24 25 26 27 28 29 29 28 26 24 22 18 12 10 11 15 24 12 6 16 16 19 24 26 26 25 21 24 21 24 23 19 16 17 15 12
18 19 20 20 20 20 21 22 23 23 24 25 26 26 27 29 30 31 31 26 23 21 17 10 11 12 13 16 25 23 13 17 19 20 24 25 24 21 25 19 24 25 21 17 20 21 15
19 18 19 20 19 19 20 21 22 23 24 25 27 28 30 30 32 32 31 32 25 16 8 4 10 11 12 6 20 23 19 19 20 18 24 21 18 22 21 21 20 21 19 22 21 23 18
18 19 19 20 19 19 20 21 22 23 24 25 26 27 28 30 32 33 34 35 12 7 8 10 13 10 12 15 13 21 24 19 21 20 22 20 16 19 21 20 21 22 21 19 24 21 24
18 19 20 20 21 20 21 22 23 24 25 26 27 27 28 28 31 33 19 12 16 5 11 21 11 17 23 9 6 16 22 22 22 23 23 24 18 26 29 25 23 24 20 24 22 22 23
18 20 21 21 21 21 21 22 23 24 26 27 28 29 29 33 31 32 17 16 15 14 25 21 29 33 34 29 21 15 22 26 26 27 25 22 29 26 27 25 27 27 24 25 23 25 14
19 19 19 20 21 21 22 22 22 23 24 26 26 28 30 31 32 19 11 18 16 16 16 22 32 30 32 26 27 20 27 28 29 30 31 29 18 26 27 26 28 28 27 24 21 21 24
18 18 19 20 21 21 22 22 23 24 25 25 26 27 29 30 10 17 13 17 16 14 10 13 14 11 26 26 29 28 28 28 26 32 32 28 29 29 27 29 26 27 27 26 25 19 17
17 17 18 18 19 21 21 22 23 24 25 26 27 28 27 19 13 11 17 17 16 8 10 10 9 7 8 28 4 34 26 28 32 24 31 30 27 31 29 25 28 24 25 25 26 20 18
17 17 18 18 19 20 21 23 25 27 29 30 30 30 26 14 11 12 17 17 11 7 15 12 25 26 13 23 30 18 33 31 27 28 28 31 25 27 26 23 27 24 22 25 24 18 18
18 17 18 19 18 19 21 23 24 26 29 31 30 32 22 12 9 16 14 12 7 9 19 21 29 29 28 26 23 30 30 32 29 29 29 28 33 29 26 25 26 21 22 14 16 19 16
17 17 17 17 18 19 20 22 24 27 28 31 33 35 11 12 12 14 12 13 12 11 18 28 25 27 26 22 23 22 27 28 33 30 17 23 28 35 21 28 25 27 25 14 22 18 17
16 16 17 17 17 18 20 22 24 27 30 32 33 11 13 8 10 10 11 11 12 10 16 18 25 23 24 31 22 29 29 28 32 34 32 23 30 26 29 25 25 26 28 23 22 20 16
15 16 17 17 17 18 19 20 23 27 30 36 13 13 15 7 12 10 11 15 12 12 15 21 24 20 23 24 26 27 24 27 27 33 32 30 18 32 33 25 29 28 21 22 18 21 20
15 16 17 17 18 18 19 20 21 24 28 37 10 9 8 11 10 11 12 13 17 19 23 20 22 20 20 21 20 23 16 23 21 18 32 30 26 22 29 34 27 22 22 25 20 16 15
16 16 16 17 18 18 19 19 19 22 23 15 10 11 13 7 13 4 7 15 13 18 9 17 24 16 12 11 18 17 21 15 29 26 17 18 22 22 25 27 32 28 28 25 13 21 15
16 17 17 17 18 18 18 18 18 17 20 11 10 14 9 12 10 10 15 19 17 11 10 13 18 15 15 11 11 10 16 24 35 30 13 13 14 21 26 23 32 32 29 28 22 19 19
17 18 18 19 18 19 18 17 15 14 17 10 8 8 10 11 12 17 18 16 16 9 3 11 27 13 13 15 15 9 15 16 32 30 14 7 9 21 19 20 18 29 29 29 28 18 16
18 19 18 19 20 19 19 17 14 12 13 9 5 6 4 8 12 20 19 16 18 10 11 13 13 10 13 13 15 7 10 23 24 25 19 11 14 18 27 24 22 27 26 30 31 20 22
18 20 20 20 20 20 19 17 14 12 11 9 2 4 5 11 17 17 18 11 21 16 14 15 18 8 15 12 13 14 14 13 11 22 23 19 9 11 18 22 20 18 31 30 29 29 23
19 20 21 20 21 21 20 17 15 11 4 4 2 2 3 6 13 12 13 15 22 22 15 16 15 16 18 11 15 16 14 15 18 24 19 14 11 8 16 18 22 19 15 27 25 26 24
20 21 22 21 21 21 21 18 16 12 9 5 2 2 2 6 10 12 14 21 18 20 20 16 18 17 17 16 15 17 18 20 19 21 16 12 13 10 10 12 18 10 11 16 13 25 24
21 22 23 22 22 22 21 20 17 14 13 8 2 4 3 5 9 15 16 17 19 20 21 13 17 12 15 16 15 15 14 15 19 19 14 11 10 8 6 7 7 12 14 18 11 8 5
22 22 23 23 22 22 22 21 18 15 14 8 5 4 3 2 7 14 6 13 13 13 19 3 12 14 12 9 11 16 5 9 13 16 14 11 10 9 9 7 12 9 16 5 12 12 9
22 23 23 23 23 24 23 20 19 17 14 6 3 8 3 3 6 10 5 4 7 10 10 11 14 15 13 8 11 8 9 7 6 20 16 11 8 10 10 7 4 12 17 4 9 7 17
23 23 23 23 24 23 22 20 19 17 15 7 3 8 5 4 7 9 9 7 7 6 6 13 8 7 6 3 7 5 3 5 8 10 1 9 13 12 12 13 11 19 11 8 8 12 15
23 23 23 24 22 22 21 19 18 16 15 8 3 4 6 1 4 4 8 11 16 16 10 4 11 13 4 6 7 6 12 8 13 8 12 6 7 6 9 12 10 14 14 14 11 8 11
Wind_Direction
21 17 14 12 9 6 3 359 356 352 348 345 341 336 333 329 327 323 320 317 315 311 307 297 284 274 254 219 243 239 121 141 174 198 209 218 218 218 220 228 230 238 247 182 199 233 151
17 14 12 9 7 4 0 357 354 351 347 343 339 335 332 329 326 323 318 316 313 312 307 295 268 225 239 247 246 234 164 163 186 200 212 218 222 219 228 233 238 233 232 235 216 213 176
14 12 9 8 5 2 359 356 352 347 343 340 337 335 333 330 326 322 318 315 314 311 303 293 229 217 240 238 266 221 194 187 202 199 210 217 225 221 228 233 241 242 244 243 246 244 240
13 11 8 6 3 358 355 352 348 342 340 338 336 334 331 329 326 322 317 313 308 304 299 296 204 208 255 246 232 264 218 200 205 198 218 213 222 232 235 243 237 248 245 225 216 236 223
11 8 5 1 359 354 350 347 344 340 338 338 337 336 332 330 326 321 318 309 300 280 302 175 174 222 261 195 228 212 229 207 206 191 216 223 213 227 230 229 242 239 237 236 240 212 224
8 3 0 357 355 351 349 346 342 339 336 335 334 332 329 327 324 320 320 305 301 192 220 201 264 224 238 240 209 218 206 212 205 197 212 223 210 217 226 214 222 230 218 227 234 201 208
4 359 357 354 351 348 346 342 338 335 334 333 332 331 328 327 322 316 326 342 352 183 333 288 262 241 296 295 287 188 200 204 205 206 206 207 209 214 215 222 225 236 226 223 227 235 208
1 358 355 352 350 347 342 339 336 333 331 332 332 332 332 328 322 312 301 9 1 301 298 276 263 263 264 276 290 212 191 199 201 205 203 205 223 214 221 215 228 230 241 227 230 220 204
360 355 353 351 347 343 340 337 334 333 332 332 332 330 330 327 316 299 343 356 328 323 288 285 247 241 231 235 241 223 195 200 201 203 204 216 211 223 217 219 221 226 231 244 226 244 184
357 354 352 349 346 343 342 340 339 338 335 333 331 329 329 334 300 321 352 336 327 327 287 271 207 247 220 220 225 236 192 203 209 210 211 218 227 199 216 219 218 222 226 243 255 228 224
355 352 350 349 346 344 343 343 342 339 336 333 332 330 330 322 300 309 342 324 316 278 295 88 96 16 214 204 179 208 219 208 215 205 209 211 215 221 207 217 216 226 217 229 249 258 249
353 350 350 348 347 344 345 346 344 341 338 335 333 326 332 302 261 274 320 315 280 245 246 2 7 350 312 207 234 268 204 208 218 220 214 228 212 227 219 212 218 218 226 215 231 246 245
349 345 345 345 344 347 346 344 342 339 334 329 325 316 314 294 293 320 320 294 269 248 303 354 344 339 326 308 229 241 198 200 209 219 210 215 227 219 221 202 212 209 214 210 208 216 233
344 341 341 342 344 346 345 344 341 338 332 324 322 310 265 257 292 322 302 280 273 276 350 335 333 321 300 293 298 241 241 208 210 222 216 213 211 221 203 212 201 209 213 218 212 210 216
340 339 339 340 342 343 344 344 341 336 332 326 317 307 291 195 329 304 284 283 314 353 330 328 320 310 321 335 343 321 233 226 205 221 222 209 225 201 226 211 216 201 216 216 229 223 224
338 337 337 336 338 339 342 344 341 336 333 323 316 293 265 2 317 283 270 273 312 341 327 317 301 305 308 315 325 331 314 227 210 209 235 241 225 227 202 205 220 221 196 215 228 235 228
333 332 330 331 333 335 338 342 340 337 335 321 289 303 61 344 300 264 279 329 338 334 334 316 312 306 304 341 319 304 280 327 357 227 210 239 249 231 224 205 205 210 211 208 229 234 239
328 325 324 328 326 328 333 338 339 336 339 330 306 299 332 328 292 325 309 338 338 319 334 337 307 302 319 327 308 307 296 304 330 323 289 241 234 246 247 209 207 210 217 208 222 213 245
325 324 323 324 322 323 328 333 337 337 345 330 311 298 310 334 311 341 335 317 331 335 321 315 289 309 307 303 293 294 315 324 309 322 358 352 240 229 242 235 191 213 207 222 211 228 222
323 321 321 320 321 320 322 327 331 333 331 329 305 315 341 327 344 338 325 318 310 40 339 345 307 318 321 307 301 309 320 313 321 299 321 287 260 249 229 231 207 193 212 209 226 208 225
318 316 316 315 316 316 316 321 328 324 323 307 342 296 330 310 326 317 307 315 307 280 295 212 290 320 306 308 312 298 304 321 324 314 329 256 262 250 241 237 224 194 208 213 216 214 219
313 312 314 315 315 314 315 318 323 318 321 268 308 331 337 302 285 299 302 330 282 319 310 317 314 281 302 309 303 315 312 303 299 321 333 336 273 283 266 267 273 270 198 213 216 226 204
309 309 309 313 312 312 314 318 318 312 321 312 171 279 274 276 289 290 288 322 322 316 304 304 272 306 301 337 297 295 283 267 259 285 308 318 339 294 254 249 247 243 245 201 217 213 223
304 306 306 311 310 310 311 314 313 309 282 273 237 148 219 268 279 275 288 305 298 299 291 301 304 289 296 309 302 287 267 256 246 262 273 296 307 300 278 275 246 257 224 255 235 216 211
303 304 305 309 308 309 309 310 310 305 290 275 206 174 190 257 257 283 280 290 282 304 297 276 273 297 288 292 279 279 270 231 233 238 248 260 284 293 256 239 228 250 219 215 236 225 260
302 304 305 306 307 308 308 312 311 304 291 279 236 172 172 253 225 269 304 297 307 301 291 2 280 316 291 290 278 275 299 318 203 219 221 234 242 279 299 273 222 247 243 189 208 231 288
302 304 305 306 308 309 311 311 309 307 298 281 265 189 160 229 263 265 244 273 296 313 306 317 342 309 287 262 292 276 281 291 297 195 185 201 247 236 243 264 268 352 358 91 170 58 24
305 307 308 308 311 312 310 311 308 307 301 294 257 182 182 212 273 253 254 255 271 279 299 327 321 343 352 307 315 16 320 311 286 43 186 195 195 223 237 241 236 46 341 35 42 53 35
308 309 310 313 309 311 315 313 310 307 303 301 251 185 203 177 286 332 294 265 261 261 269 299 303 314 20 342 356 339 311 299 319 294 164 195 233 255 244 243 293 346 5 8 27 35 30